[[{"header":{"parameterUnit":"m.s-1","parameterCategory":1,"la1":30.2991,"la2":30.254,"lo1":-89.0895,"lo2":-89.0444,"dy":0.0017,"dx":0.0017,"nx":28,"ny":28,"refTime":"2025-08-01T03:00:00:Z","depth":0,"parameterNumber":2,"parameterNumberName":"U-component_of_WINDS"},"data":[0,0,0,0,0,0,0,0,0,0,0,0,0,0,0,0,0,0,0,0,0,0,0,0,0,0,0,0,0,0,0,0,0,0,0,0,0,0,0,0,0,0,0,0,0,0,0,0,0,0,0,0,0,0,0,0,0,0,1.6319,1.632,0,1.6397,1.6398,1.6399,1.6398,1.6397,1.6396,1.6395,1.6481,1.6484,1.6488,0,0,0,0,0,0,0,0,0,0,0,0,0,1.6173,1.6176,1.6319,1.632,1.6321,1.6397,1.6398,1.6399,1.6398,1.6397,1.6396,1.6394,1.648,1.6484,1.6488,0,0,0,0,0,0,0,0,0,0,0,0,0,1.6243,1.6177,1.6319,1.6329,1.6331,1.6397,1.6398,1.64,1.6399,1.6397,1.6395,1.6394,1.6479,1.6483,1.6488,1.6551,0,0,1.6503,1.6506,0,0,0,0,0,0,0,0,1.6239,1.6248,1.6327,1.6329,1.6331,1.6386,1.6379,1.6451,1.6399,1.6373,1.6395,1.6393,1.6451,1.6458,1.6477,1.6555,1.6558,1.6504,1.6507,1.6509,1.651,0,0,0,0,0,0,0,1.6234,1.6245,1.635,1.6328,1.633,1.6332,1.634,1.6392,1.642,1.6375,1.6375,1.6384,1.6452,1.6472,1.6479,1.656,1.6504,1.6508,1.6511,1.6513,1.6694,1.6696,0,0,0,0,0,0,1.6226,1.6241,1.6348,1.6352,1.628,1.6336,1.6345,1.637,1.642,1.6426,1.6386,1.6384,1.6464,1.6473,1.6482,1.6559,1.6509,1.6514,1.6516,1.6692,1.6694,1.6696,0,0,0,0,0,0,1.6223,1.6236,1.6344,1.6297,1.631,1.634,1.6368,1.6372,1.6392,1.6427,1.6433,1.64,1.6463,1.6475,1.6533,1.6561,1.6516,1.652,1.669,1.6693,1.6695,1.6712,0,0,0,0,0,0,1.6219,1.6234,1.6257,1.6297,1.6313,1.6393,1.637,1.6375,1.64,1.6399,1.6443,1.6449,1.6463,1.6526,1.6538,1.6567,1.6524,1.6688,1.6691,1.6694,1.6709,1.6715,1.672,0,0,0,0,0,1.6214,1.626,1.6258,1.6271,1.6342,1.6395,1.6404,1.6418,1.6402,1.6426,1.6449,1.6447,1.6556,1.6532,1.6546,1.6577,1.6686,1.669,1.6694,1.6707,1.6714,1.672,0,0,0,0,0,0,1.6224,1.6265,1.6264,1.6324,1.6356,1.6394,1.6425,1.6425,1.6463,1.646,1.6478,1.6488,1.6546,1.6568,1.654,1.664,1.6619,1.6627,1.6624,1.6631,1.6637,1.6631,1.6528,0,0,0,0,0,1.6233,1.6271,1.6306,1.6355,1.6371,1.6395,1.6419,1.6427,1.6461,1.6475,1.6502,1.6537,1.6579,1.6606,1.6647,1.6712,1.6723,1.6741,1.6746,1.675,1.6757,1.6794,1.6802,1.671,1.671,1.671,0,0,1.6253,1.628,1.6303,1.6358,1.6384,1.6424,1.6407,1.645,1.6481,1.6482,1.6538,1.656,1.66,1.6662,1.6691,1.6682,1.6784,1.6756,1.6759,1.6763,1.6799,1.6808,1.6815,1.6713,1.6712,1.6712,0,0,1.631,1.6333,1.6378,1.6403,1.6441,1.6457,1.6468,1.6506,1.652,1.6576,1.6578,1.6616,1.6688,1.6716,1.6741,1.6808,1.6809,1.6821,1.685,1.6886,1.6893,1.69,1.6925,1.6934,1.6827,1.6827,1.6827,0,1.633,1.6389,1.6401,1.6445,1.6469,1.647,1.6516,1.6541,1.6591,1.6609,1.6598,1.6688,1.6715,1.6784,1.6801,1.682,1.6834,1.6816,1.6891,1.6898,1.6904,1.6928,1.6937,1.6828,1.6828,1.6828,1.6828,0,1.6413,1.6454,1.6486,1.6532,1.6561,1.6605,1.6625,1.6653,1.6658,1.6676,1.6734,1.6767,1.6814,1.6831,1.6838,1.6902,1.6895,1.6887,1.6866,1.6914,1.6937,1.6946,1.683,1.683,1.6829,1.6829,0,0,1.6479,1.6531,1.6542,1.6564,1.6606,1.6639,1.6684,1.6729,1.6753,1.6787,1.6827,1.6888,1.688,1.6908,1.6917,1.6949,1.7001,1.6937,1.6938,1.6949,1.7075,1.7081,1.7092,1.7001,1.7003,1.7005,1.7072,0,1.6541,1.6619,1.6631,1.6701,1.674,1.6742,1.6781,1.6813,1.683,1.6867,1.6888,1.693,1.6917,1.6934,1.6965,1.6988,1.7027,1.6984,1.704,1.7042,1.703,1.7104,1.711,1.7172,1.7081,1.7083,1.7084,0,1.6623,1.6658,1.6731,1.6768,1.6785,1.682,1.6863,1.6897,1.6933,1.6944,1.6974,1.698,1.7029,1.7006,1.7074,1.7044,1.7068,1.7084,1.7086,1.7093,1.7066,1.7113,1.7193,1.7202,1.7098,1.7097,1.7096,0,1.6665,1.6731,1.6783,1.6801,1.6846,1.687,1.689,1.6924,1.6951,1.6988,1.7006,1.7049,1.7073,1.7107,1.7125,1.7107,1.7193,1.7171,1.7205,1.7205,1.7224,1.7222,1.7309,1.7238,1.7238,1.7238,1.7237,0,1.6733,1.6778,1.6802,1.6835,1.6886,1.69,1.6951,1.697,1.7001,1.7038,1.7043,1.7078,1.71,1.7139,1.7154,1.7209,1.722,1.7231,1.7234,1.7231,1.7229,1.7247,1.7244,1.724,1.724,1.7239,1.7239,0,1.6789,1.6807,1.6864,1.6901,1.6911,1.6947,1.698,1.7012,1.7029,1.7077,1.7089,1.7117,1.7163,1.7184,1.7242,1.7252,1.7315,1.7315,1.7302,1.7304,1.7336,1.7333,1.7438,1.7453,1.7371,1.7372,1.7373,0,1.6831,1.6866,1.6906,1.693,1.695,1.699,1.7016,1.7032,1.706,1.7103,1.7131,1.7177,1.7214,1.7288,1.7315,1.736,1.7361,1.7395,1.7368,1.7364,1.7363,1.7361,1.7365,1.74,1.7401,1.7402,1.7402,0,1.6905,1.6912,1.6949,1.6989,1.702,1.7053,1.7085,1.7106,1.7127,1.7158,1.7204,1.7233,1.7291,1.7337,1.7383,1.7406,1.7409,1.741,1.7421,1.7418,1.7409,1.7415,1.7316,1.7408,1.7407,1.7407,1.7407,1.7407,1.6956,1.6987,1.702,1.7061,1.7087,1.7117,1.7149,1.717,1.7208,1.7255,1.7263,1.7312,1.7348,1.741,1.7434,1.7475,1.7467,1.7482,1.7486,1.7489,1.7491,1.7402,1.7483,1.7483,1.7483,1.7483,1.7483,0,1.7031,1.7052,1.709,1.7134,1.7167,1.7164,1.7199,1.7228,1.7271,1.7303,1.7339,1.7393,1.7438,1.7468,1.7513,1.754,1.7543,1.7552,1.7551,1.7556,1.7495,1.7482,1.7549,1.7549,1.7549,1.7549,1.7549,1.7549,1.7074,1.7126,1.7137,1.7203,1.7224,1.7271,1.7292,1.732,1.7346,1.7405,1.7442,1.746,1.7492,1.754,1.7582,1.7589,1.7606,1.7616,1.7624,1.7567,1.756,1.7553,1.7541,1.762,1.762,1.7681,1.7682,1.7682]},{"header":{"parameterUnit":"m.s-1","parameterCategory":1,"la1":30.2991,"la2":30.254,"lo1":-89.0895,"lo2":-89.0444,"dy":0.0017,"dx":0.0017,"nx":28,"ny":28,"refTime":"2025-08-01T03:00:00:Z","depth":0,"parameterNumber":3,"parameterNumberName":"V-component_of_WINDS"},"data":[0,0,0,0,0,0,0,0,0,0,0,0,0,0,0,0,0,0,0,0,0,0,0,0,0,0,0,0,0,0,0,0,0,0,0,0,0,0,0,0,0,0,0,0,0,0,0,0,0,0,0,0,0,0,0,0,0,0,0.2234,0.2235,0,0.2372,0.2374,0.2375,0.2409,0.2408,0.2407,0.2407,0.2551,0.2556,0.256,0,0,0,0,0,0,0,0,0,0,0,0,0,0.1998,0.2002,0.2233,0.2235,0.2237,0.2372,0.2374,0.2376,0.2409,0.2408,0.2407,0.2406,0.255,0.2555,0.2561,0,0,0,0,0,0,0,0,0,0,0,0,0,0.2115,0.2003,0.2233,0.227,0.2275,0.2371,0.2374,0.2376,0.241,0.2408,0.2407,0.2406,0.2548,0.2555,0.2562,0.2633,0,0,0.2583,0.2586,0,0,0,0,0,0,0,0,0.2108,0.2123,0.2263,0.2268,0.2273,0.2372,0.2344,0.2462,0.241,0.2358,0.2406,0.2405,0.2493,0.2504,0.2533,0.2639,0.2646,0.2584,0.2588,0.2591,0.2593,0,0,0,0,0,0,0,0.21,0.2117,0.2288,0.2265,0.2271,0.2279,0.2294,0.2366,0.2432,0.2363,0.2366,0.2381,0.2495,0.2527,0.2537,0.2648,0.2584,0.259,0.2594,0.2597,0.2814,0.2816,0,0,0,0,0,0,0.2085,0.211,0.2284,0.2292,0.2185,0.2285,0.2302,0.2342,0.2431,0.2443,0.2382,0.2382,0.2515,0.2529,0.2542,0.2628,0.2591,0.2598,0.2602,0.2813,0.2814,0.2816,0,0,0,0,0,0,0.208,0.21,0.2278,0.2202,0.2226,0.229,0.2335,0.2345,0.2376,0.2446,0.2458,0.2402,0.2515,0.2532,0.2609,0.2634,0.2601,0.2607,0.2811,0.2813,0.2815,0.2802,0,0,0,0,0,0,0.2073,0.2098,0.2126,0.2203,0.2229,0.2342,0.2336,0.2349,0.2388,0.2389,0.2467,0.2479,0.2515,0.2598,0.2616,0.2643,0.2613,0.2809,0.2812,0.2815,0.2801,0.2804,0.2806,0,0,0,0,0,0.2065,0.2119,0.2127,0.2148,0.2266,0.2344,0.2359,0.2398,0.239,0.2418,0.2462,0.2477,0.2628,0.2605,0.2626,0.2655,0.2807,0.2811,0.2814,0.2799,0.2803,0.2806,0,0,0,0,0,0,0.2046,0.2129,0.214,0.2221,0.2274,0.2349,0.2386,0.2402,0.246,0.2459,0.2506,0.2524,0.2596,0.2634,0.2607,0.2726,0.2718,0.2725,0.2699,0.2703,0.2706,0.2695,0.2619,0,0,0,0,0,0.205,0.2106,0.2177,0.2241,0.2267,0.2322,0.2358,0.2383,0.2441,0.2464,0.2514,0.2571,0.263,0.2669,0.2729,0.2806,0.2822,0.2836,0.2839,0.2841,0.2847,0.2887,0.2893,0.2828,0.2827,0.2827,0,0,0.2062,0.2114,0.2147,0.2238,0.2283,0.2339,0.2341,0.2402,0.2444,0.2474,0.2548,0.2586,0.2652,0.2728,0.2764,0.2762,0.2868,0.2846,0.2847,0.2852,0.2891,0.2898,0.2903,0.283,0.2829,0.2829,0,0,0.211,0.2157,0.2213,0.2257,0.2324,0.2359,0.2372,0.2444,0.247,0.2545,0.2567,0.2618,0.2721,0.2766,0.2802,0.2863,0.2878,0.2881,0.2896,0.2935,0.294,0.2945,0.2964,0.2971,0.2887,0.2887,0.2887,0,0.2116,0.2202,0.2241,0.2299,0.2337,0.2365,0.2421,0.2462,0.2546,0.2571,0.2567,0.2694,0.2741,0.2825,0.284,0.2869,0.2885,0.2873,0.2936,0.2941,0.2946,0.2965,0.2973,0.2887,0.2887,0.2887,0.2887,0,0.2204,0.2263,0.23,0.2377,0.242,0.2477,0.2524,0.2562,0.2582,0.2618,0.2692,0.2748,0.2817,0.2839,0.2862,0.2927,0.2923,0.2927,0.2919,0.2952,0.297,0.2978,0.2887,0.2887,0.2887,0.2887,0,0,0.2247,0.2341,0.2354,0.2388,0.2462,0.2508,0.2565,0.2631,0.2662,0.2717,0.2765,0.285,0.2853,0.2894,0.2921,0.2955,0.2995,0.2954,0.2956,0.2958,0.3068,0.3063,0.3071,0.3005,0.3007,0.3008,0.3061,0,0.2303,0.2405,0.244,0.2525,0.2577,0.2603,0.2652,0.2702,0.2736,0.2786,0.2824,0.2881,0.2882,0.2906,0.2941,0.2983,0.3018,0.298,0.305,0.3052,0.3031,0.3081,0.3077,0.3125,0.3069,0.307,0.3071,0,0.2382,0.2436,0.2525,0.2588,0.2612,0.2656,0.2717,0.2765,0.2821,0.2843,0.2887,0.291,0.297,0.2958,0.3039,0.3012,0.3043,0.3067,0.307,0.3077,0.3063,0.3088,0.3141,0.3147,0.3083,0.3082,0.3082,0,0.2401,0.2496,0.256,0.2589,0.2665,0.2695,0.2728,0.2783,0.2819,0.2873,0.2897,0.2957,0.299,0.3036,0.3074,0.3063,0.3151,0.3144,0.317,0.3169,0.3188,0.3186,0.3245,0.321,0.321,0.3209,0.3209,0,0.2459,0.2512,0.2569,0.2609,0.2668,0.2707,0.2765,0.28,0.2847,0.2894,0.292,0.2963,0.3011,0.306,0.3091,0.3152,0.3167,0.3186,0.3193,0.3183,0.318,0.3203,0.32,0.3211,0.3211,0.3211,0.321,0,0.249,0.2531,0.2602,0.2667,0.2685,0.2725,0.2781,0.282,0.2853,0.2911,0.2927,0.298,0.3038,0.3081,0.3158,0.3178,0.3243,0.3251,0.3223,0.3226,0.325,0.3246,0.3325,0.3336,0.3294,0.3294,0.3295,0,0.2524,0.2564,0.2633,0.2664,0.2697,0.2749,0.2785,0.2824,0.2861,0.2925,0.2956,0.3016,0.3066,0.3157,0.3203,0.326,0.3269,0.3293,0.3278,0.3265,0.3267,0.3264,0.3267,0.3294,0.3295,0.3295,0.3295,0,0.2578,0.2595,0.2646,0.2702,0.2744,0.2791,0.2838,0.2863,0.291,0.295,0.3008,0.3047,0.3123,0.3181,0.3242,0.3277,0.3293,0.3299,0.3308,0.3297,0.3279,0.3287,0.3227,0.3297,0.3297,0.3297,0.3297,0.3297,0.261,0.2646,0.2699,0.2753,0.2792,0.2835,0.2873,0.291,0.296,0.3023,0.3044,0.3104,0.3156,0.324,0.3274,0.3322,0.3321,0.3335,0.3338,0.334,0.3338,0.3271,0.3334,0.3334,0.3334,0.3334,0.3334,0,0.2664,0.2698,0.2748,0.2811,0.2853,0.2864,0.2916,0.295,0.3003,0.305,0.3097,0.3163,0.3219,0.3267,0.3325,0.3353,0.3362,0.3367,0.3365,0.3372,0.3337,0.3322,0.3358,0.3358,0.3358,0.3358,0.3358,0.3358,0.2697,0.2757,0.278,0.2859,0.2893,0.2951,0.2979,0.3018,0.3055,0.3127,0.3173,0.3204,0.3251,0.3311,0.3362,0.3375,0.3394,0.3397,0.3411,0.3378,0.3375,0.3372,0.3358,0.3401,0.3401,0.3442,0.3442,0.3443]}]]